Location: Morisset
(33.1080°S, 151.4871°E)
Time: 08:56:06
(UTC+00:00)

ATLAS CENTAUR R/B - Pass Details

Date: 29 October 2020
Orbit: 478 x 667 km, 64.7° (Epoch: 22 November)

Event Time Altitude Azimuth Distance (km) Brightness Sun altitude
Rises 17:07:56 0° 218° (SW) 3,005 5.0 -21.4°
Reaches altitude 10° 17:10:26 10° 226° (SW) 2,066 4.1 -21.0°
Enters shadow 17:11:41 17° 234° (SW) 1,631 3.5 -20.7°
